Lapse_Rate
3.8 4.1 4.1 4.4 4.6 5.2 5.6 6.6 8.6 8.0 8.3 9.0 8.3 5.7 4.6 4.6 4.9 4.5 4.9 5.0 4.3 4.1 4.2 4.3 4.1 4.4 4.3 3.8 2.9 2.3 0.8 0.3 -0.4 0.4 5.5 6.4 5.9 6.4
4.2 4.5 4.6 4.8 4.9 5.0 5.6 6.0 6.5 8.4 8.2 8.8 8.5 7.3 5.7 4.9 4.6 5.1 5.3 4.8 4.6 4.7 4.7 4.5 4.7 4.7 4.8 4.6 4.3 3.6 2.9 2.0 1.7 0.5 1.5 5.6 6.5 6.1
4.6 4.6 4.6 4.8 4.9 5.3 5.7 5.9 6.1 7.1 8.6 8.0 8.2 8.0 7.0 6.0 5.2 5.5 5.5 6.0 6.0 5.6 5.4 5.5 5.1 5.1 5.4 5.9 6.2 4.2 4.1 3.8 4.2 -0.0 0.9 0.5 4.6 6.4
4.7 4.8 4.6 5.5 5.4 5.7 5.9 5.9 6.5 6.7 8.2 7.6 7.9 8.7 8.6 7.8 6.6 5.8 6.6 6.8 7.1 6.7 6.1 6.2 7.0 6.3 7.1 6.2 5.8 5.1 4.1 5.1 3.7 3.4 2.3 0.6 0.6 3.8
5.1 5.1 5.2 5.6 5.3 6.1 6.3 6.0 6.2 7.2 8.0 8.7 8.3 9.3 9.5 9.8 9.2 8.0 7.3 8.1 9.1 9.1 8.6 8.8 8.8 9.3 6.7 6.5 6.5 7.3 7.7 6.9 3.7 5.2 3.5 1.7 0.3 0.0
6.2 6.4 6.5 6.5 6.1 6.7 8.3 7.8 8.0 8.3 8.2 8.6 8.7 8.9 9.4 9.4 9.6 9.2 8.5 9.3 9.9 9.5 9.5 8.7 7.9 8.5 8.6 7.0 8.7 8.0 7.2 6.1 6.2 5.0 4.9 2.9 2.9 1.4
8.3 8.6 8.7 9.1 9.2 9.4 9.0 8.5 8.1 8.1 9.0 9.3 9.0 9.3 9.2 9.0 9.1 9.4 9.4 9.6 9.3 10.1 10.0 9.8 8.6 8.9 8.9 8.5 7.3 7.1 7.1 6.8 6.2 5.5 4.4 3.9 3.1 3.6
9.2 9.5 9.4 9.5 9.4 9.5 9.6 9.6 9.8 8.9 8.1 9.1 9.3 8.9 9.1 9.3 9.5 9.5 9.4 9.3 8.9 8.6 9.6 9.4 9.8 8.8 8.2 8.1 7.5 7.4 7.6 7.1 6.9 6.6 5.1 4.4 4.8 3.4
9.4 9.3 9.5 9.8 9.5 9.4 8.3 9.2 9.3 9.3 9.7 9.4 8.9 8.8 8.8 9.0 9.3 9.1 9.1 8.8 8.9 8.5 9.2 9.4 9.7 9.6 8.4 8.3 8.2 7.6 7.5 9.1 9.2 8.8 7.1 4.9 4.7 4.0
9.5 9.5 9.5 9.2 8.5 9.3 9.5 9.3 9.1 8.7 8.6 9.2 9.1 8.7 8.7 8.8 8.8 8.7 8.3 8.4 8.7 8.7 8.4 8.3 9.2 9.4 9.6 8.4 7.9 8.6 8.3 9.2 9.3 9.2 8.1 7.6 5.7 4.9
9.6 9.6 9.5 9.1 8.7 9.8 9.6 9.2 9.2 8.9 8.9 9.3 9.3 9.3 9.3 9.4 9.4 9.2 8.4 7.7 7.9 9.1 9.4 9.2 9.1 9.2 9.6 9.5 9.3 9.3 9.4 9.3 9.1 8.6 9.3 7.3 7.7 6.7
9.5 9.6 9.7 9.8 9.8 9.8 9.6 9.2 8.5 8.7 9.4 9.3 9.3 9.2 8.6 8.5 8.5 8.2 8.2 8.2 8.7 8.7 9.4 8.9 9.1 9.3 8.7 9.6 9.9 9.9 9.6 9.2 9.5 8.7 7.0 7.4 6.5 5.6
9.5 9.5 9.8 9.8 9.5 9.6 9.7 9.6 8.9 9.3 9.4 8.9 8.1 7.7 8.5 9.2 9.6 9.7 9.9 9.8 9.3 9.1 9.2 9.6 8.9 9.1 8.8 8.7 9.4 9.7 9.8 9.7 9.7 8.4 7.7 8.6 7.3 7.5
9.0 9.5 9.6 9.7 9.9 9.8 9.6 9.5 9.4 8.9 8.4 8.9 9.1 9.3 9.3 9.0 8.8 9.1 9.3 9.6 9.7 9.7 9.2 9.7 8.2 8.6 8.3 8.1 8.4 9.3 9.5 9.8 9.8 9.6 9.2 8.5 8.9 7.5
9.8 9.6 9.7 9.4 9.4 9.6 9.5 9.5 9.2 8.2 9.0 8.7 8.6 8.6 8.5 8.5 8.6 8.6 8.6 8.5 8.9 8.7 8.3 9.1 9.3 9.1 8.7 8.0 7.7 8.1 8.7 9.2 9.6 9.4 9.4 9.3 8.6 8.4
8.8 8.9 8.9 9.2 9.2 9.0 9.2 9.0 9.0 9.0 8.9 9.0 9.1 9.0 8.4 7.8 7.7 7.7 8.2 8.3 8.4 8.4 7.9 8.6 9.4 9.1 8.8 8.9 8.9 8.6 8.9 8.5 9.2 9.5 9.5 9.4 8.9 7.6
7.4 6.9 8.2 9.0 8.9 9.0 9.0 9.0 8.4 8.5 8.3 8.2 8.2 8.1 8.0 7.9 8.1 8.0 8.7 8.5 8.3 8.5 8.6 8.5 9.2 9.2 9.1 9.0 8.4 8.8 8.8 8.8 8.9 9.1 8.9 8.0 8.6 8.9
8.6 7.5 6.4 7.3 7.8 8.5 8.6 8.2 7.9 7.7 7.5 8.0 8.1 8.0 8.2 8.3 8.4 8.6 8.8 8.6 8.4 8.6 8.8 8.8 8.9 8.7 8.7 8.9 9.3 8.4 8.6 8.5 8.7 9.0 9.0 8.4 8.4 8.5
5.9 5.2 5.2 5.8 6.5 6.7 6.7 6.5 6.3 6.3 6.6 6.9 7.1 7.4 7.7 7.8 8.6 8.1 8.4 8.6 8.5 8.7 8.8 8.9 8.6 8.1 7.7 7.7 8.9 9.6 8.7 8.7 8.6 8.7 8.7 8.4 8.3 7.9
5.2 5.4 5.2 5.0 4.9 4.9 4.8 4.9 5.0 5.1 5.4 5.9 6.1 6.2 6.3 6.8 7.2 7.6 8.1 8.2 8.4 8.4 8.4 8.5 8.4 8.2 7.9 7.7 7.7 8.4 9.4 9.0 8.9 8.7 8.7 8.9 8.9 9.1
5.5 4.9 4.5 4.0 3.6 3.7 3.9 4.4 4.5 4.3 4.7 5.3 5.9 6.1 6.0 6.7 6.8 7.1 7.6 8.5 8.5 8.0 7.8 7.9 8.2 8.6 8.3 8.4 7.7 7.9 8.7 9.4 9.5 8.8 8.7 8.6 8.5 8.6
4.3 4.2 3.5 3.2 3.1 3.2 3.6 3.9 3.8 3.9 4.1 4.3 4.4 4.7 4.8 5.7 6.6 6.8 7.4 7.8 7.8 8.0 8.1 8.3 8.2 8.4 8.5 8.1 7.7 7.9 8.4 8.9 9.3 9.7 9.6 9.3 8.5 7.9
4.2 3.7 3.1 2.9 3.0 3.1 3.3 3.4 3.6 3.9 4.2 4.3 4.0 4.2 4.8 5.9 6.2 7.4 7.8 7.9 8.0 7.9 8.0 8.0 8.3 8.4 8.1 8.0 8.1 7.9 7.8 8.0 8.5 8.4 8.6 9.5 9.6 9.1
Wind_Speed
8 9 7 7 9 7 7 8 9 10 11 7 6 17 22 23 25 28 27 28 31 32 32 32 33 31 31 29 29 30 31 35 36 35 35 44 44 44
10 10 9 8 9 10 8 8 8 9 10 9 11 13 22 25 26 27 27 31 29 29 31 32 32 32 32 30 29 27 29 27 27 24 32 37 45 45
10 10 12 12 9 8 8 8 9 9 11 12 11 15 17 17 24 25 26 26 26 28 30 32 33 33 32 30 26 26 27 27 30 29 35 33 33 48
12 11 12 9 12 11 9 12 11 12 11 17 13 12 15 19 23 22 22 26 25 27 31 32 32 32 30 32 32 31 30 31 31 31 34 31 34 33
13 13 12 12 13 10 11 11 11 11 12 11 13 11 11 11 15 19 17 20 23 27 29 29 29 31 34 33 32 30 23 23 24 26 25 34 33 34
14 13 13 13 15 14 13 15 14 13 13 11 13 12 11 13 11 12 13 12 12 21 24 28 32 30 30 29 24 25 28 27 27 26 31 31 31 31
15 15 18 20 24 22 11 13 12 11 11 12 13 13 12 11 12 11 12 13 16 12 12 13 16 17 22 25 30 34 33 33 35 33 34 33 32 30
15 15 18 21 22 27 29 30 21 15 14 13 13 14 17 14 13 12 12 12 15 16 12 11 14 12 15 21 29 34 35 35 35 35 31 34 34 31
15 14 15 14 21 17 23 28 27 29 27 18 18 17 17 16 15 16 16 14 15 16 14 14 11 13 17 23 31 35 34 33 33 33 34 33 36 34
16 17 16 17 17 17 18 19 19 18 18 14 17 19 19 18 17 17 18 19 16 15 14 16 13 13 12 19 28 30 33 33 33 35 39 38 37 34
16 17 17 17 22 26 18 18 19 18 27 35 37 38 39 41 37 16 14 13 13 14 13 12 15 13 12 12 18 29 34 37 40 40 35 26 32 33
15 17 23 20 26 27 18 16 17 16 16 18 17 21 32 29 33 18 12 13 15 16 14 12 13 12 14 11 12 13 16 29 31 26 27 28 28 11
11 11 11 24 26 27 30 17 18 19 22 18 15 11 10 13 11 11 14 13 14 15 17 14 14 14 13 15 12 12 12 13 12 19 30 30 28 22
13 11 13 24 27 28 24 29 32 28 12 11 11 11 11 12 12 12 15 15 18 17 21 17 11 13 13 14 15 12 13 12 12 13 13 20 27 29
12 17 27 28 30 24 25 29 28 11 10 11 11 11 11 11 14 13 14 21 20 22 26 22 15 17 14 15 13 13 15 13 12 13 13 13 12 12
18 15 19 23 26 21 15 13 10 10 11 11 11 12 11 11 12 11 12 12 13 13 18 23 17 18 15 15 14 16 15 16 13 13 13 14 13 9
17 11 9 10 9 9 10 11 10 11 10 11 11 11 12 12 12 11 12 12 13 14 14 12 14 17 16 18 15 15 15 15 14 14 13 12 13 13
10 7 6 8 10 11 11 11 11 13 11 11 11 11 12 12 12 12 12 13 14 14 14 13 12 13 13 17 24 15 14 15 14 15 14 14 15 14
6 6 7 9 9 10 10 11 11 11 14 12 12 12 12 13 16 13 13 13 14 15 15 13 13 13 15 18 13 26 15 15 14 14 14 14 16 16
5 7 8 8 9 9 9 10 11 11 11 12 12 12 13 13 13 14 14 15 15 15 15 13 13 13 16 19 18 14 23 14 13 14 14 14 15 26
7 7 8 8 9 9 10 10 12 12 13 12 13 13 14 13 15 15 16 26 26 17 17 16 16 31 16 16 17 17 14 30 26 17 16 14 14 13
7 8 9 9 9 10 11 11 11 13 13 12 13 13 14 14 15 17 16 17 17 17 18 16 17 15 15 17 20 23 16 14 23 34 36 30 13 15
7 8 9 9 9 10 11 11 12 13 13 14 14 15 15 15 16 16 17 18 18 19 19 18 16 15 17 18 24 17 22 18 14 14 15 32 35 39
Wind_Direction
286 285 280 280 276 275 274 276 286 298 302 305 298 314 312 310 311 312 310 310 310 309 309 310 308 308 308 307 305 304 304 303 306 306 245 214 214 213
285 283 281 282 284 281 278 278 273 277 283 299 296 301 301 303 305 305 305 306 304 303 303 304 305 305 304 302 301 298 296 300 306 315 303 235 214 213
282 282 283 284 280 283 280 277 277 276 281 286 291 294 296 298 299 300 301 300 298 299 301 301 302 301 300 299 306 306 304 303 303 306 308 315 262 212
280 277 278 282 280 281 280 278 277 280 281 286 289 291 289 293 293 295 294 295 294 295 297 298 297 295 298 299 298 297 295 288 284 287 282 293 317 271
274 273 274 274 276 275 276 278 276 274 275 275 284 285 282 283 286 287 291 288 288 292 295 295 297 299 295 293 294 289 301 303 301 286 295 294 290 316
267 267 268 266 270 274 272 270 269 270 269 272 279 282 281 281 277 280 285 288 292 292 292 290 292 293 290 292 298 302 304 305 297 296 288 289 296 290
267 267 269 267 266 266 264 266 266 267 272 274 277 284 282 283 282 286 284 290 291 289 284 278 282 282 284 279 282 284 283 282 285 285 284 286 291 293
274 272 270 271 278 280 277 274 270 270 275 277 277 278 282 284 283 281 280 282 286 287 282 278 278 279 279 275 275 280 280 282 280 278 279 279 278 283
271 276 278 274 277 281 281 279 278 277 274 277 275 273 278 276 277 277 274 268 269 275 282 281 275 272 276 277 278 281 282 280 281 281 278 274 276 271
275 273 271 274 274 274 277 277 273 269 266 265 263 266 267 272 267 264 264 269 268 268 268 273 274 269 271 271 273 274 278 279 283 286 282 276 272 268
276 273 270 272 271 275 273 271 273 273 273 273 277 278 277 278 279 277 271 272 271 269 262 264 275 273 268 264 265 268 271 276 278 278 273 297 269 267
269 267 266 269 274 276 277 278 276 274 279 278 274 270 271 273 279 277 279 278 278 278 270 266 270 273 278 262 265 266 264 264 275 266 280 284 288 286
267 267 266 271 275 281 281 276 273 272 274 279 275 279 283 279 278 270 267 266 269 271 273 273 273 273 264 275 269 267 268 269 269 274 279 276 276 274
261 267 273 279 281 278 278 277 279 281 285 287 287 286 284 282 280 279 275 273 270 272 275 271 271 268 270 271 270 265 260 260 261 263 267 267 269 271
272 269 272 275 277 283 290 288 285 290 290 287 283 281 278 279 280 277 273 272 269 264 267 270 266 270 268 273 272 259 257 258 253 256 259 259 257 263
276 273 269 271 275 287 294 295 290 285 280 276 277 280 281 278 273 271 273 272 269 269 264 264 261 263 264 263 269 268 264 264 264 258 257 255 246 241
259 257 267 282 285 288 291 288 285 281 276 274 274 276 276 275 273 272 269 269 265 269 272 267 259 257 257 260 262 260 263 263 261 262 260 261 257 255
293 304 320 304 292 292 291 287 282 283 277 278 275 273 273 275 275 275 270 265 265 266 267 267 267 266 264 256 246 260 258 258 258 259 257 259 265 258
327 315 299 295 288 285 283 282 282 282 284 279 274 273 273 274 279 275 272 270 267 266 264 264 261 258 264 265 261 241 250 248 251 248 243 244 250 258
306 298 289 284 280 278 278 277 280 280 278 277 274 272 272 271 273 270 268 267 267 267 267 260 254 249 250 255 262 257 242 252 249 251 250 248 251 256
290 283 276 274 273 273 273 274 273 276 277 274 272 271 272 271 269 268 267 268 266 266 264 259 250 248 253 259 260 258 250 244 245 247 250 254 257 261
274 273 275 271 270 271 272 273 275 275 276 274 272 270 269 267 266 265 263 263 262 261 261 262 263 259 254 250 255 258 256 247 241 240 243 245 246 247
275 273 277 275 272 272 272 275 274 274 274 275 274 272 270 269 266 264 264 263 263 261 262 262 257 252 249 249 251 256 253 251 244 241 240 243 244 248